| time (UTC) | temp F | wind direction | speed MPH | gust MPH | rain 1hr in | rain 24hr in | rain mn in | humidity % | barometer mb |
| 20260508134542 | 78 | 0 | 0.0 | 2.0 | 0.00 | 0.03 | 0.03 | 91 | 1012.4 |
| 20260508133044 | 78 | 333 | 0.0 | 4.0 | 0.00 | 0.03 | 0.03 | 91 | 1012.3 |
| 20260508131539 | 78 | 0 | 0.0 | 0.0 | 0.00 | 0.03 | 0.03 | 92 | 1012.1 |
| 20260508130039 | 78 | 0 | 0.0 | 0.0 | 0.00 | 0.03 | 0.03 | 91 | 1012.1 |
| 20260508124542 | 78 | 0 | 0.0 | 0.0 | 0.00 | 0.03 | 0.03 | 90 | 1012.0 |
| 20260508123043 | 78 | 0 | 0.0 | 0.0 | 0.00 | 0.03 | 0.03 | 91 | 1011.9 |
| 20260508121542 | 78 | 0 | 0.0 | 0.0 | 0.00 | 0.03 | 0.03 | 91 | 1012.0 |
| 20260508120045 | 78 | 0 | 0.0 | 0.0 | 0.00 | 0.03 | 0.03 | 91 | 1011.8 |
| 20260508114546 | 78 | 0 | 0.0 | 2.0 | 0.00 | 0.03 | 0.03 | 91 | 1011.5 |
| 20260508113045 | 78 | 0 | 0.0 | 2.0 | 0.00 | 0.03 | 0.03 | 91 | 1011.2 |
| 20260508111549 | 78 | 82 | 0.0 | 2.0 | 0.00 | 0.03 | 0.03 | 91 | 1010.7 |
| 20260508110047 | 79 | 82 | 0.0 | 2.0 | 0.00 | 0.03 | 0.03 | 91 | 1010.6 |
| 20260508104541 | 79 | 0 | 0.0 | 0.0 | 0.00 | 0.03 | 0.03 | 92 | 1010.4 |
| 20260508103052 | 80 | 82 | 0.0 | 2.0 | 0.00 | 0.03 | 0.03 | 91 | 1010.3 |
| 20260508101548 | 80 | 0 | 0.0 | 2.0 | 0.00 | 0.03 | 0.03 | 91 | 1010.1 |
| 20260508100044 | 81 | 82 | 0.0 | 2.0 | 0.00 | 0.03 | 0.03 | 90 | 1009.9 |
| 20260508094542 | 82 | 0 | 0.0 | 1.0 | 0.00 | 0.03 | 0.03 | 88 | 1009.7 |
| 20260508093045 | 82 | 0 | 0.0 | 2.0 | 0.00 | 0.03 | 0.03 | 88 | 1009.4 |
| 20260508091600 | 83 | 0 | 0.0 | 0.0 | 0.00 | 0.03 | 0.03 | 84 | 1009.2 |
| 20260508090047 | 83 | 0 | 0.0 | 1.0 | 0.00 | 0.03 | 0.03 | 86 | 1009.0 |
| 20260508084555 | 84 | 227 | 0.0 | 2.0 | 0.00 | 0.03 | 0.03 | 81 | 1008.5 |
| 20260508083053 | 84 | 244 | 0.0 | 2.0 | 0.00 | 0.03 | 0.03 | 81 | 1008.3 |
| 20260508081548 | 85 | 0 | 0.0 | 2.0 | 0.00 | 0.03 | 0.03 | 81 | 1008.3 |
| 20260508080100 | 84 | 0 | 0.0 | 1.0 | 0.00 | 0.03 | 0.03 | 86 | 1008.2 |
| 20260508074541 | 84 | 0 | 0.0 | 2.0 | 0.02 | 0.03 | 0.03 | 85 | 1008.2 |
| 20260508073051 | 84 | 0 | 0.0 | 4.0 | 0.03 | 0.03 | 0.03 | 84 | 1008.2 |
| 20260508071544 | 81 | 0 | 0.0 | 4.0 | 0.03 | 0.03 | 0.03 | 88 | 1008.2 |
| 20260508070054 | 80 | 76 | 0.0 | 4.0 | 0.03 | 0.03 | 0.03 | 87 | 1008.6 |
| 20260508064555 | 81 | 163 | 3.0 | 14.0 | 0.01 | 0.01 | 0.01 | 84 | 1008.6 |
| 20260508063048 | 88 | 116 | 1.0 | 3.0 | 0.00 | 0.00 | 0.00 | 74 | 1008.4 |
| 20260508061549 | 91 | 0 | 1.0 | 4.0 | 0.00 | 0.00 | 0.00 | 74 | 1008.2 |
| 20260508060047 | 91 | 352 | 0.0 | 6.0 | 0.00 | 0.00 | 0.00 | 71 | 1008.3 |
| 20260508054549 | 92 | 331 | 3.0 | 9.0 | 0.00 | 0.00 | 0.00 | 69 | 1008.5 |
| 20260508053050 | 91 | 294 | 3.0 | 6.0 | 0.00 | 0.00 | 0.00 | 68 | 1008.6 |
| 20260508051540 | 89 | 5 | 2.0 | 6.0 | 0.00 | 0.00 | 0.00 | 73 | 1008.7 |
| 20260508050101 | 89 | 296 | 2.0 | 6.0 | 0.00 | 0.00 | 0.00 | 72 | 1009.2 |
| 20260508044548 | 92 | 259 | 2.0 | 8.0 | 0.00 | 0.00 | 0.00 | 65 | 1009.1 |
| 20260508043040 | 91 | 234 | 1.0 | 6.0 | 0.00 | 0.00 | 0.00 | 68 | 1009.4 |
| 20260508041539 | 89 | 303 | 1.0 | 6.0 | 0.00 | 0.00 | 0.00 | 71 | 1009.7 |
| 20260508040053 | 90 | 257 | 1.0 | 4.0 | 0.00 | 0.00 | 0.00 | 70 | 1010.0 |
| 20260508034547 | 89 | 305 | 1.0 | 4.0 | 0.00 | 0.00 | 0.00 | 73 | 1010.2 |
| 20260508033042 | 88 | 305 | 1.0 | 3.0 | 0.00 | 0.00 | 0.00 | 76 | 1010.2 |
| 20260508031540 | 89 | 320 | 1.0 | 4.0 | 0.00 | 0.00 | 0.00 | 75 | 1010.3 |
| 20260508030039 | 89 | 30 | 1.0 | 3.0 | 0.00 | 0.00 | 0.00 | 74 | 1010.6 |
| 20260508024545 | 86 | 231 | 0.0 | 1.0 | 0.00 | 0.00 | 0.00 | 76 | 1010.8 |
| 20260508023045 | 86 | 0 | 0.0 | 1.0 | 0.00 | 0.00 | 0.00 | 77 | 1011.0 |
| 20260508021544 | 88 | 311 | 0.0 | 4.0 | 0.00 | 0.00 | 0.00 | 76 | 1011.1 |
| 20260508020040 | 86 | 5 | 2.0 | 4.0 | 0.00 | 0.00 | 0.00 | 78 | 1011.3 |
| 20260508014545 | 86 | 0 | 1.0 | 3.0 | 0.00 | 0.00 | 0.00 | 77 | 1011.5 |
| 20260508013046 | 85 | 0 | 0.0 | 4.0 | 0.00 | 0.00 | 0.00 | 80 | 1011.7 |
| 20260508011546 | 85 | 0 | 0.0 | 3.0 | 0.00 | 0.00 | 0.00 | 81 | 1011.8 |
| 20260508010043 | 86 | 0 | 0.0 | 4.0 | 0.00 | 0.00 | 0.00 | 78 | 1011.9 |
| 20260508004547 | 85 | 0 | 0.0 | 3.0 | 0.00 | 0.00 | 0.00 | 78 | 1011.8 |
| 20260508003050 | 86 | 260 | 0.0 | 4.0 | 0.00 | 0.00 | 0.00 | 79 | 1011.8 |
| 20260508001546 | 85 | 360 | 1.0 | 4.0 | 0.00 | 0.00 | 0.00 | 82 | 1011.8 |
| 20260508000044 | 83 | 319 | 1.0 | 4.0 | 0.00 | 0.00 | 0.00 | 83 | 1011.9 |
| 20260507234551 | 82 | 318 | 0.0 | 2.0 | 0.00 | 0.00 | 0.00 | 86 | 1011.9 |
| 20260507233053 | 81 | 288 | 0.0 | 2.0 | 0.00 | 0.00 | 0.00 | 87 | 1012.1 |
| 20260507231539 | 79 | 303 | 0.0 | 1.0 | 0.00 | 0.00 | 0.00 | 91 | 1012.1 |
| 20260507230049 | 77 | 0 | 0.0 | 3.0 | 0.00 | 0.00 | 0.00 | 93 | 1012.0 |
| 20260507224548 | 77 | 281 | 0.0 | 1.0 | 0.00 | 0.00 | 0.00 | 94 | 1011.9 |
| 20260507223056 | 76 | 280 | 0.0 | 2.0 | 0.00 | 0.00 | 0.00 | 95 | 1011.6 |
| 20260507221542 | 76 | 0 | 0.0 | 1.0 | 0.00 | 0.00 | 0.00 | 95 | 1011.5 |
| 20260507220040 | 75 | 0 | 0.0 | 2.0 | 0.00 | 0.00 | 0.00 | 95 | 1011.0 |
| 20260507214548 | 75 | 16 | 0.0 | 1.0 | 0.00 | 0.00 | 0.00 | 95 | 1010.8 |
| 20260507213045 | 75 | 0 | 0.0 | 2.0 | 0.00 | 0.00 | 0.00 | 95 | 1010.8 |
| 20260507211550 | 74 | 16 | 0.0 | 2.0 | 0.00 | 0.00 | 0.00 | 95 | 1010.8 |
| 20260507210106 | 74 | 16 | 0.0 | 1.0 | 0.00 | 0.00 | 0.00 | 95 | 1010.5 |
| 20260507204548 | 75 | 0 | 0.0 | 3.0 | 0.00 | 0.04 | 0.00 | 95 | 1010.3 |
| 20260507203045 | 75 | 0 | 0.0 | 0.0 | 0.00 | 0.04 | 0.00 | 95 | 1010.3 |
| 20260507201543 | 75 | 0 | 0.0 | 0.0 | 0.00 | 0.04 | 0.00 | 95 | 1010.2 |
| 20260507200052 | 75 | 0 | 0.0 | 0.0 | 0.00 | 0.04 | 0.00 | 95 | 1010.4 |
| 20260507194549 | 75 | 0 | 0.0 | 0.0 | 0.00 | 0.07 | 0.00 | 95 | 1010.3 |
| 20260507193041 | 75 | 0 | 0.0 | 0.0 | 0.00 | 0.07 | 0.00 | 95 | 1010.3 |
| 20260507191549 | 75 | 0 | 0.0 | 0.0 | 0.00 | 0.07 | 0.00 | 95 | 1010.3 |
| 20260507190053 | 75 | 0 | 0.0 | 0.0 | 0.00 | 0.07 | 0.00 | 95 | 1010.3 |
| 20260507184547 | 75 | 0 | 0.0 | 0.0 | 0.00 | 0.08 | 0.00 | 95 | 1010.3 |
| 20260507183053 | 75 | 0 | 0.0 | 0.0 | 0.00 | 0.08 | 0.00 | 95 | 1010.2 |
| 20260507181551 | 75 | 0 | 0.0 | 0.0 | 0.00 | 0.08 | 0.00 | 95 | 1010.3 |
| 20260507180038 | 76 | 0 | 0.0 | 2.0 | 0.00 | 0.08 | 0.00 | 95 | 1010.3 |
| 20260507174554 | 76 | 84 | 0.0 | 2.0 | 0.00 | 0.09 | 0.00 | 95 | 1010.4 |
| 20260507173048 | 75 | 0 | 0.0 | 1.0 | 0.00 | 0.09 | 0.00 | 95 | 1010.7 |
| 20260507171540 | 75 | 0 | 1.0 | 2.0 | 0.00 | 0.09 | 0.00 | 95 | 1010.4 |
| 20260507170047 | 76 | 96 | 0.0 | 1.0 | 0.00 | 0.09 | 0.00 | 94 | 1010.8 |
| 20260507164606 | 76 | 0 | 0.0 | 2.0 | 0.00 | 0.09 | 0.00 | 95 | 1011.0 |
| 20260507163052 | 76 | 58 | 0.0 | 2.0 | 0.00 | 0.09 | 0.00 | 95 | 1010.9 |
| 20260507161555 | 76 | 58 | 0.0 | 1.0 | 0.00 | 0.09 | 0.00 | 94 | 1011.1 |
| 20260507160039 | 76 | 47 | 0.0 | 3.0 | 0.00 | 0.09 | 0.00 | 94 | 1011.2 |
| 20260507154539 | 76 | 0 | 0.0 | 1.0 | 0.00 | 0.09 | 0.09 | 94 | 1011.4 |
| 20260507153042 | 76 | 0 | 0.0 | 2.0 | 0.00 | 0.09 | 0.09 | 94 | 1011.4 |
| 20260507151548 | 76 | 178 | 0.0 | 1.0 | 0.00 | 0.09 | 0.09 | 94 | 1011.4 |
| 20260507150046 | 76 | 0 | 0.0 | 4.0 | 0.00 | 0.09 | 0.09 | 94 | 1011.6 |
| 20260507144540 | 76 | 0 | 0.0 | 1.0 | 0.00 | 0.09 | 0.09 | 94 | 1011.6 |
| 20260507143047 | 76 | 0 | 0.0 | 2.0 | 0.00 | 0.09 | 0.09 | 94 | 1011.7 |
| 20260507141545 | 77 | 53 | 0.0 | 1.0 | 0.00 | 0.09 | 0.09 | 94 | 1011.6 |
| 20260507140045 | 77 | 0 | 0.0 | 1.0 | 0.00 | 0.09 | 0.09 | 94 | 1011.6 |